TimeCST,TemperatureF,Dew PointF,Humidity,Sea Level PressureIn,VisibilityMPH,Wind Direction,Wind SpeedMPH,Gust SpeedMPH,PrecipitationIn,Events,Conditions,WindDirDegrees,DateUTC
12:15 AM,35.6,23.0,60,30.14,1.8,Calm,Calm,-,N/A,,Haze,0,2012-11-05 06:15:00
12:35 AM,35.6,21.2,56,30.13,3.0,Calm,Calm,-,N/A,,Haze,0,2012-11-05 06:35:00
12:55 AM,35.6,21.2,56,30.13,7.0,Calm,Calm,-,N/A,,Clear,0,2012-11-05 06:55:00
1:15 AM,33.8,21.2,60,30.13,4.0,North,-9999.0,-,N/A,,Haze,0,2012-11-05 07:15:00
1:35 AM,35.6,21.2,56,30.14,6.0,Calm,Calm,-,N/A,,Haze,0,2012-11-05 07:35:00
1:55 AM,33.8,21.2,60,30.13,3.0,Calm,Calm,-,N/A,,Haze,0,2012-11-05 07:55:00
2:15 AM,33.8,21.2,60,30.13,6.0,Calm,Calm,-,N/A,,Haze,0,2012-11-05 08:15:00
2:35 AM,35.6,21.2,56,30.12,6.0,Calm,Calm,-,N/A,,Haze,0,2012-11-05 08:35:00
2:55 AM,35.6,21.2,56,30.12,7.0,North,-9999.0,-,N/A,,Clear,0,2012-11-05 08:55:00
3:15 AM,33.8,21.2,60,30.12,4.0,Calm,Calm,-,N/A,,Haze,0,2012-11-05 09:15:00
3:35 AM,33.8,21.2,60,30.12,3.0,Calm,Calm,-,N/A,,Haze,0,2012-11-05 09:35:00
3:55 AM,33.8,21.2,60,30.13,8.0,Calm,Calm,-,N/A,,Clear,0,2012-11-05 09:55:00
4:15 AM,33.8,21.2,60,30.13,4.0,Calm,Calm,-,N/A,,Haze,0,2012-11-05 10:15:00
4:35 AM,32.0,19.4,60,30.14,3.0,North,-9999.0,-,N/A,,Haze,0,2012-11-05 10:35:00
4:55 AM,32.0,19.4,60,30.13,3.0,Calm,Calm,-,N/A,,Haze,0,2012-11-05 10:55:00
5:15 AM,33.8,19.4,56,30.13,3.0,Calm,Calm,-,N/A,,Haze,0,2012-11-05 11:15:00
5:35 AM,32.0,19.4,60,30.14,5.0,Calm,Calm,-,N/A,,Haze,0,2012-11-05 11:35:00
5:55 AM,32.0,19.4,60,30.14,1.5,Calm,Calm,-,N/A,,Haze,0,2012-11-05 11:55:00
6:15 AM,32.0,19.4,60,30.13,3.0,Calm,Calm,-,N/A,,Haze,0,2012-11-05 12:15:00
6:35 AM,32.0,19.4,60,30.13,3.0,Calm,Calm,-,N/A,,Haze,0,2012-11-05 12:35:00
6:55 AM,33.8,21.2,60,30.13,4.0,Calm,Calm,-,N/A,,Haze,0,2012-11-05 12:55:00
7:15 AM,37.4,23.0,56,30.13,3.0,Calm,Calm,-,N/A,,Haze,0,2012-11-05 13:15:00
7:35 AM,39.2,26.6,61,30.12,7.0,NNE,3.5,-,N/A,,Clear,30,2012-11-05 13:35:00
7:55 AM,41.0,28.4,61,30.12,6.0,Calm,Calm,-,N/A,,Haze,0,2012-11-05 13:55:00
8:15 AM,44.6,32.0,61,30.12,8.0,SE,3.5,-,N/A,,Clear,130,2012-11-05 14:15:00
8:35 AM,48.2,33.8,58,30.11,8.0,ESE,6.9,-,N/A,,Clear,110,2012-11-05 14:35:00
8:55 AM,51.8,35.6,54,30.11,9.0,East,6.9,-,N/A,,Clear,100,2012-11-05 14:55:00
9:15 AM,55.4,39.2,54,30.10,10.0,SE,11.5,-,N/A,,Clear,130,2012-11-05 15:15:00
9:35 AM,57.2,41.0,55,30.10,9.0,ESE,6.9,-,N/A,,Partly Cloudy,110,2012-11-05 15:35:00
9:55 AM,57.2,42.8,59,30.09,10.0,ESE,8.1,-,N/A,,Partly Cloudy,110,2012-11-05 15:55:00
10:15 AM,59.0,42.8,55,30.09,10.0,SSE,5.8,-,N/A,,Partly Cloudy,150,2012-11-05 16:15:00
10:35 AM,60.8,42.8,52,30.09,9.0,SSE,6.9,-,N/A,,Clear,160,2012-11-05 16:35:00
10:55 AM,60.8,44.6,55,30.08,10.0,SSE,4.6,-,N/A,,Clear,160,2012-11-05 16:55:00
11:15 AM,60.8,44.6,55,30.08,10.0,SSW,5.8,-,N/A,,Partly Cloudy,210,2012-11-05 17:15:00
11:35 AM,60.8,44.6,55,30.07,9.0,SSW,5.8,-,N/A,,Partly Cloudy,200,2012-11-05 17:35:00
11:55 AM,60.8,44.6,55,30.06,10.0,SSW,5.8,-,N/A,,Partly Cloudy,200,2012-11-05 17:55:00
12:15 PM,59.0,42.8,55,30.05,10.0,South,4.6,-,N/A,,Clear,170,2012-11-05 18:15:00
12:35 PM,60.8,44.6,55,30.04,9.0,SSW,4.6,-,N/A,,Partly Cloudy,200,2012-11-05 18:35:00
12:55 PM,60.8,44.6,55,30.03,10.0,SSW,4.6,-,N/A,,Partly Cloudy,210,2012-11-05 18:55:00
1:15 PM,60.8,44.6,55,30.02,10.0,South,3.5,-,N/A,,Scattered Clouds,170,2012-11-05 19:15:00
1:35 PM,60.8,44.6,55,30.00,9.0,Calm,Calm,-,N/A,,Partly Cloudy,0,2012-11-05 19:35:00
1:55 PM,60.8,44.6,55,30.01,10.0,Calm,Calm,-,N/A,,Scattered Clouds,0,2012-11-05 19:55:00
2:15 PM,60.8,44.6,55,30.01,10.0,Calm,Calm,-,N/A,,Scattered Clouds,0,2012-11-05 20:15:00
2:35 PM,60.8,44.6,55,29.98,7.0,Calm,Calm,-,N/A,,Light Drizzle,0,2012-11-05 20:35:00
2:55 PM,60.8,44.6,55,29.99,10.0,Calm,Calm,-,N/A,,Mostly Cloudy,0,2012-11-05 20:55:00
3:15 PM,59.0,42.8,55,30.00,8.0,Calm,Calm,-,N/A,,Mostly Cloudy,0,2012-11-05 21:15:00
3:35 PM,57.2,41.0,55,30.02,5.0,West,5.8,-,N/A,,Haze,280,2012-11-05 21:35:00
3:55 PM,55.4,39.2,54,30.02,7.0,Calm,Calm,-,N/A,,Clear,0,2012-11-05 21:55:00
4:15 PM,55.4,39.2,54,30.00,7.0,Calm,Calm,-,N/A,,Clear,0,2012-11-05 22:15:00
4:35 PM,53.6,37.4,54,30.00,6.0,Calm,Calm,-,N/A,,Haze,0,2012-11-05 22:35:00
4:55 PM,53.6,37.4,54,30.00,6.0,North,-9999.0,-,N/A,,Haze,0,2012-11-05 22:55:00
5:15 PM,53.6,37.4,54,30.02,8.0,Calm,Calm,-,N/A,,Partly Cloudy,0,2012-11-05 23:15:00
5:35 PM,51.8,35.6,54,30.02,5.0,Calm,Calm,-,N/A,,Haze,0,2012-11-05 23:35:00
5:55 PM,51.8,35.6,54,30.02,8.0,NNE,3.5,-,N/A,,Overcast,20,2012-11-05 23:55:00
6:15 PM,51.8,35.6,54,30.03,9.0,NNW,9.2,-,N/A,,Light Drizzle,340,2012-11-06 00:15:00
6:35 PM,51.8,35.6,54,30.02,8.0,North,10.4,-,N/A,Rain,Light Rain,350,2012-11-06 00:35:00
6:55 PM,50.0,33.8,54,30.03,7.0,NNW,5.8,-,N/A,,Mostly Cloudy,340,2012-11-06 00:55:00
7:15 PM,48.2,33.8,58,30.03,4.0,SW,3.5,-,N/A,Rain,Rain,230,2012-11-06 01:15:00
7:35 PM,48.2,33.8,58,29.99,3.0,SSE,6.9,-,0.02,Rain,Light Rain,150,2012-11-06 01:35:00
7:55 PM,48.2,33.8,58,29.99,9.0,Calm,Calm,-,0.02,,Scattered Clouds,0,2012-11-06 01:55:00
8:15 PM,48.2,32.0,54,29.99,9.0,Calm,Calm,-,N/A,,Clear,0,2012-11-06 02:15:00
8:35 PM,48.2,32.0,54,30.02,9.0,Calm,Calm,-,N/A,,Partly Cloudy,0,2012-11-06 02:35:00
8:55 PM,48.2,32.0,54,30.02,8.0,NNW,3.5,-,N/A,,Mostly Cloudy,330,2012-11-06 02:55:00
9:15 PM,48.2,32.0,54,30.02,7.0,Calm,Calm,-,N/A,,Overcast,0,2012-11-06 03:15:00
9:35 PM,48.2,32.0,54,30.02,8.0,Calm,Calm,-,N/A,,Overcast,0,2012-11-06 03:35:00
9:55 PM,48.2,32.0,54,30.01,6.0,Calm,Calm,-,N/A,,Haze,0,2012-11-06 03:55:00
10:15 PM,46.4,32.0,57,30.01,3.0,Calm,Calm,-,N/A,,Haze,0,2012-11-06 04:15:00
10:35 PM,46.4,32.0,57,30.01,5.0,Calm,Calm,-,N/A,,Haze,0,2012-11-06 04:35:00
10:55 PM,48.2,32.0,54,30.00,7.0,Calm,Calm,-,N/A,,Overcast,0,2012-11-06 04:55:00
11:15 PM,48.2,32.0,54,30.00,7.0,Calm,Calm,-,N/A,,Overcast,0,2012-11-06 05:15:00
11:35 PM,48.2,32.0,54,30.00,3.0,Calm,Calm,-,N/A,,Haze,0,2012-11-06 05:35:00
11:55 PM,48.2,32.0,54,30.00,5.0,Calm,Calm,-,N/A,,Haze,0,2012-11-06 05:55:00